Location: Unspecified
(0.0000°N, 0.0000°E)
Time: 11:58:46
(UTC+00:00)

ARIANE 6 FM1 Upper Stage - Pass Details

Date: 22 February 2026
Orbit: 523 x 607 km, 62.0° (Epoch: 05 March)

Event Time Altitude Azimuth Distance (km) Brightness Sun altitude
Rises 19:26:09 0° 342° (NNW) 2,667 6.2 -17.9°
Reaches altitude 10° 19:28:20 10° 346° (NNW) 1,791 5.3 -18.4°
Maximum altitude 19:32:18 59° 65° (ENE) 638 2.5 -19.4°
Enters shadow 19:33:14 45° 117° (ESE) 754 2.9 -19.6°
